Weather History for KAIA - July, 2013

Change the Weather History Date:

Sunday, July 14, 2013

  Actual Average Record
Temperature  
Mean Temperature 72 °F 72 °F  
Max Temperature 79 °F 89 °F 104 °F (1931)
Min Temperature 64 °F 56 °F 40 °F (1990)
Degree Days  
Heating Degree Days 0 0  
Month to date heating degree days 0 5  
Since 1 June heating degree days 62 98  
Since 1 July heating degree days 0 5  
Cooling Degree Days 7 8  
Month to date cooling degree days 128 93  
Year to date cooling degree days 274 191  
Since 1 June cooling degree days 252 181  
Growing Degree Days 20 (Base 50)    
Moisture  
Dew Point 62 °F    
Average Humidity 77    
Maximum Humidity 93    
Minimum Humidity 60    
Precipitation  
Precipitation 0.00 in 0.09 in 0.83 in (1918)
Month to date precipitation T 1.07  
Year to date precipitation 6.72 9.46  
Sea Level Pressure  
Sea Level Pressure 30.07 in    
Wind  
Wind Speed 13 mph (NNE)    
Max Wind Speed 30 mph    
Max Gust Speed 36 mph    
Visibility 9 miles    
Events      
T = Trace of Precipitation, MM = Missing Value Source: NWS Daily Summary

Daily Weather History Graph

Daily Weather History Graph

Search for Another Location

Airport or City:

Trip Planner

Search our weather history database for the weather conditions in past years. The results will help you decide how hot, cold, wet, or windy it might be!

Date:

Astronomy

Jul. 14, 2013 Rise Set
Actual Time 5:28 AM MDT 8:25 PM MDT
Civil Twilight 4:54 AM MDT 8:58 PM MDT
Nautical Twilight 4:12 AM MDT 9:41 PM MDT
Astronomical Twilight 3:22 AM MDT 10:30 PM MDT
Moon 11:54 AM MDT (7/14) 11:31 PM MDT (7/14)
Length of Visible Light 16h 04m
Length of Day
14h 57m
Waxing Crescent, 35% of the Moon is Illuminated
Jul 14
Waxing Crescent
Jul 15
First Quarter
Jul 22
Full
Jul 29
Last Quarter
Aug 6
New

Hourly Weather History & Observations

Time (MDT) Temp. Dew Point Humidity Pressure Visibility Wind Dir Wind Speed Gust Speed Precip Events Conditions
12:53 AM 72.0 °F 60.1 °F 66% 29.90 in 10.0 mi WNW 10.4 mph - N/A   Clear
1:53 AM 71.1 °F 60.1 °F 68% 29.88 in 10.0 mi WNW 8.1 mph - N/A   Clear
2:53 AM 70.0 °F 60.1 °F 71% 29.91 in 10.0 mi WNW 3.5 mph - N/A   Clear
3:53 AM 69.1 °F 61.0 °F 75% 29.94 in 10.0 mi SSE 8.1 mph - N/A   Scattered Clouds
4:53 AM 66.9 °F 60.1 °F 79% 29.94 in 10.0 mi WNW 3.5 mph - N/A   Clear
5:53 AM 66.9 °F 63.0 °F 87% 29.93 in 10.0 mi NNW 12.7 mph - N/A   Clear
6:11 AM 66.2 °F 62.6 °F 88% 30.08 in 10.0 mi NNW 15.0 mph - N/A   Scattered Clouds
6:19 AM 68.0 °F 64.4 °F 88% 30.08 in 10.0 mi North 16.1 mph 23.0 mph N/A   Mostly Cloudy
6:53 AM 68.0 °F 63.0 °F 84% 29.96 in 10.0 mi North 15.0 mph 21.9 mph N/A   Overcast
7:53 AM 66.9 °F 63.0 °F 87% 29.99 in 10.0 mi NNE 20.7 mph 35.7 mph N/A   Overcast
8:53 AM 69.1 °F 63.0 °F 81% 30.03 in 10.0 mi NNE 16.1 mph - N/A   Overcast
9:53 AM 70.0 °F 64.0 °F 81% 30.05 in 10.0 mi NNE 13.8 mph - N/A   Overcast
10:29 AM 71.6 °F 64.4 °F 78% 30.18 in 10.0 mi NNE 10.4 mph - N/A   Overcast
10:53 AM 72.0 °F 64.0 °F 76% 30.05 in 10.0 mi North 13.8 mph - N/A   Overcast
11:17 AM 73.4 °F 62.6 °F 69% 30.18 in 10.0 mi North 11.5 mph - N/A   Overcast
11:42 AM 75.2 °F 62.6 °F 65% 30.18 in 10.0 mi NNE 12.7 mph - N/A   Mostly Cloudy
11:53 AM 77.0 °F 63.0 °F 62% 30.05 in 10.0 mi NNE 16.1 mph 21.9 mph N/A   Mostly Cloudy
12:53 PM 73.0 °F 62.1 °F 68% 30.08 in 10.0 mi NNE 19.6 mph - N/A   Overcast
1:53 PM 72.0 °F 62.1 °F 71% 30.09 in 10.0 mi North 15.0 mph - N/A   Overcast
2:53 PM 73.9 °F 62.1 °F 66% 30.08 in 10.0 mi NNE 15.0 mph 20.7 mph N/A   Overcast
3:53 PM 73.0 °F 62.1 °F 68% 30.07 in 10.0 mi North 13.8 mph - N/A   Overcast
4:53 PM 75.9 °F 63.0 °F 64% 30.05 in 10.0 mi NE 16.1 mph 21.9 mph N/A   Overcast
5:53 PM 72.0 °F 63.0 °F 73% 30.06 in 10.0 mi NNE 12.7 mph - N/A   Overcast
6:53 PM 70.0 °F 63.0 °F 78% 30.08 in 10.0 mi NNE 12.7 mph - N/A   Overcast
7:12 PM 68.0 °F 62.6 °F 83% 30.19 in 10.0 mi NNE 12.7 mph - N/A   Overcast
7:53 PM 66.9 °F 62.1 °F 84% 30.10 in 10.0 mi NNE 12.7 mph - N/A   Overcast
8:09 PM 66.2 °F 62.6 °F 88% 30.21 in 10.0 mi NNE 12.7 mph - N/A   Overcast
8:53 PM 64.9 °F 62.1 °F 90% 30.11 in 6.0 mi NNE 12.7 mph - N/A   Overcast
9:16 PM 64.4 °F 62.6 °F 94% 30.22 in 3.0 mi NE 12.7 mph - N/A   Overcast
9:24 PM 64.4 °F 62.6 °F 94% 30.22 in 2.5 mi NE 10.4 mph - N/A   Overcast
9:44 PM 64.4 °F 62.6 °F 94% 30.23 in 3.0 mi NNE 12.7 mph - N/A   Overcast
9:53 PM 64.0 °F 62.1 °F 93% 30.13 in 3.0 mi NE 12.7 mph - N/A   Overcast
10:53 PM 64.0 °F 62.1 °F 93% 30.12 in 6.0 mi NE 11.5 mph - N/A   Overcast
11:53 PM 64.0 °F 62.1 °F 93% 30.10 in 7.0 mi NE 11.5 mph - N/A   Overcast